Location: Hilton Head Island
(32.2163°N, 80.7526°W)
Time: 22:47:28
(UTC-04:00)

Vanguard 1 - Pass Details

Date: 19 February 2026
Orbit: 653 x 3818 km, 34.2° (Epoch: 13 March)

Event Time Altitude Azimuth Distance (km) Brightness Sun altitude
Rises 22:00:50 0° 288° (WNW) 6,929 15.1 -48.3°
Reaches altitude 10° 22:05:17 10° 283° (WNW) 6,227 14.6 -49.2°
Maximum altitude 22:24:52 46° 219° (SW) 4,609 13.2 -52.9°
Enters shadow 22:28:02 44° 202° (SSW) 4,669 13.2 -53.5°
Drops below altitude 10° 22:45:05 10° 154° (SSE) 6,336 - -56.6°
Sets 22:49:46 0° 148° (SSE) 7,044 - -57.4°
